Location: Lake Crest
(37.6062°N, 88.9176°W)
Time: 13:01:00
(UTC+00:00)

ATLAS CENTAUR R/B - Pass Details

Date: 15 December 2019
Orbit: 454 x 694 km, 64.6° (Epoch: 20 January)

Event Time Altitude Azimuth Distance (km) Brightness Sun altitude
Exits shadow 11:07:33 - 7° (N) 1,969 4.1 -22.2°
Reaches altitude 10° 11:08:09 10° 13° (NNE) 1,835 4.0 -22.0°
Maximum altitude 11:10:11 13° 43° (NE) 1,593 4.0 -21.6°
Drops below altitude 10° 11:12:09 10° 73° (ENE) 1,759 4.7 -21.3°
Sets 11:15:15 0° 102° (ESE) 2,587 6.4 -20.7°
